Home   Weather   Paramus   Past weeks

Flag for USA Past Weather in Paramus, New Jersey, USA — Yesterday and Last 2 Weeks

Now
57 °F

Overcast.


Feels Like: 56 °F
Forecast: 50 / 65 °F
Wind: 6 mph from Northeast

Location: Teterboro Airport

Current Time: Apr 30, 2017 at 8:56:52 am

Latest Report: Apr 30, 2017 at 7:51 am


Visibility: 10 mi

Pressure: 30.23 "Hg

Humidity: 47%

Dew Point: 37 °F

Location of ParamusLocation

Past Weather in Paramus — Graph

°F

Paramus Temperature Yesterday

Maximum temperature yesterday: 83 °F (at 2:51 pm)
Minimum temperature yesterday: 64 °F (at 5:51 am)
Average temperature yesterday: 73 °F

High & Low Weather Summary for the Past Weeks

 TemperatureHumidityPressure
High88 °F (Apr 16, 1:51 pm)100% (Apr 26, 3:16 am)30.53 "Hg (Apr 26, 3:16 am)
Low44 °F (Apr 24, 5:51 am)17% (Apr 28, 5:51 pm)29.74 "Hg (Apr 16, 6:51 pm)
Average59 °F71%30.03 "Hg
* Reported Apr 15 6:51 am — Apr 30 6:51 am, Paramus, Weather by CustomWeather, © 2017

Note: Actual official high and low records may vary slightly from our data, if they occured in-between our weather recording intervals... More about our weather records

Advertising

Paramus Weather History for the Previous 24 Hours

Scroll right to see more
 ConditionsComfort  
Time TempWeatherWind HumidityBarometerVisibility
6:51 am
Sun, Apr 30
58 °FPartly sunny.9 mph50%30.21 "Hg10 mi
5:51 am59 °FPassing clouds.10 mph51%30.17 "Hg10 mi
4:51 am62 °FPassing clouds.6 mph52%30.15 "Hg10 mi
3:51 am62 °FClear.3 mph52%30.14 "Hg10 mi
2:51 am64 °FOvercast.6 mph49%30.13 "Hg10 mi
1:51 am65 °FOvercast.6 mph54%30.12 "Hg10 mi
12:51 am66 °FPassing clouds.7 mph61%30.11 "Hg10 mi
11:51 pm
Sat, Apr 29
68 °FPassing clouds.10 mph61%30.11 "Hg10 mi
10:51 pm71 °FOvercast.14 mph59%30.09 "Hg10 mi
9:51 pm74 °FOvercast.12 mph56%30.07 "Hg10 mi
8:51 pm76 °FPassing clouds.12 mph54%30.03 "Hg10 mi
7:51 pm78 °FClear.6 mph50%29.99 "Hg10 mi
6:51 pm80 °FSunny.12 mph47%29.96 "Hg10 mi
5:51 pm82 °FSunny.14 mph46%29.96 "Hg10 mi
4:51 pm81 °FSunny.25 mph47%29.97 "Hg10 mi
3:51 pm83 °FSunny.22 mph46%29.95 "Hg10 mi
2:51 pm83 °FPassing clouds.10 mph51%29.94 "Hg10 mi
1:51 pm82 °FSunny.13 mph53%29.93 "Hg10 mi
12:51 pm80 °FSunny.12 mph56%29.93 "Hg10 mi
11:51 am79 °FSunny.12 mph56%29.96 "Hg10 mi
10:51 am79 °FScattered clouds.10 mph62%29.98 "Hg10 mi
9:51 am75 °FSunny.13 mph74%30.01 "Hg10 mi
8:51 am69 °FSunny.8 mph87%29.99 "Hg10 mi
Weather by CustomWeather, © 2017

See weather overviewHow to use our weather pages